| time (UTC) | temp F | wind direction | speed MPH | gust MPH | rain 1hr in | rain 24hr in | rain mn in | humidity % | barometer mb |
| 20260904082940 | 52 | 43 | 0.0 | 8.0 | 0.00 | 0.05 | 0.00 | 74 | 1009.6 |
| 20260904081945 | 52 | 43 | 1.0 | 9.0 | 0.00 | 0.05 | 0.00 | 74 | 1009.5 |
| 20260904080948 | 53 | 42 | 2.0 | 11.0 | 0.00 | 0.05 | 0.00 | 73 | 1009.5 |
| 20260904075936 | 53 | 43 | 0.0 | 12.0 | 0.00 | 0.05 | 0.00 | 73 | 1009.5 |
| 20260904074939 | 53 | 42 | 4.0 | 12.0 | 0.00 | 0.05 | 0.00 | 73 | 1009.4 |
| 20260904073942 | 53 | 43 | 6.0 | 15.0 | 0.00 | 0.05 | 0.00 | 73 | 1009.4 |
| 20260904072949 | 53 | 42 | 5.0 | 12.0 | 0.00 | 0.05 | 0.00 | 73 | 1009.4 |
| 20260904071936 | 53 | 43 | 6.0 | 12.0 | 0.00 | 0.05 | 0.00 | 73 | 1009.4 |
| 20260904070941 | 53 | 42 | 2.0 | 9.0 | 0.00 | 0.05 | 0.00 | 73 | 1009.2 |
| 20260904065942 | 53 | 42 | 0.0 | 11.0 | 0.00 | 0.05 | 0.00 | 73 | 1009.2 |
| 20260904064929 | 53 | 43 | 2.0 | 10.0 | 0.00 | 0.05 | 0.00 | 73 | 1009.2 |
| 20260904063939 | 53 | 43 | 2.0 | 8.0 | 0.00 | 0.05 | 0.05 | 74 | 1009.3 |
| 20260904062942 | 53 | 43 | 3.0 | 8.0 | 0.00 | 0.05 | 0.05 | 74 | 1009.5 |
| 20260904061945 | 53 | 42 | 5.0 | 10.0 | 0.00 | 0.05 | 0.05 | 74 | 1009.5 |
| 20260904061008 | 53 | 43 | 5.0 | 11.0 | 0.00 | 0.05 | 0.05 | 75 | 1009.6 |
| 20260904055932 | 53 | 43 | 1.0 | 9.0 | 0.00 | 0.05 | 0.05 | 74 | 1009.4 |
| 20260904054956 | 53 | 43 | 0.0 | 11.0 | 0.00 | 0.05 | 0.05 | 74 | 1009.4 |
| 20260904053941 | 53 | 43 | 5.0 | 11.0 | 0.00 | 0.05 | 0.05 | 72 | 1009.5 |
| 20260904053003 | 53 | 42 | 5.0 | 13.0 | 0.00 | 0.05 | 0.05 | 72 | 1009.4 |
| 20260904051945 | 53 | 43 | 4.0 | 12.0 | 0.00 | 0.05 | 0.05 | 74 | 1009.5 |
| 20260904050931 | 53 | 42 | 2.0 | 9.0 | 0.00 | 0.05 | 0.05 | 76 | 1009.6 |
| 20260904045937 | 52 | 43 | 3.0 | 9.0 | 0.00 | 0.05 | 0.05 | 77 | 1009.7 |
| 20260904043955 | 52 | 43 | 4.0 | 11.0 | 0.00 | 0.05 | 0.05 | 78 | 1009.5 |
| 20260904042936 | 53 | 43 | 5.0 | 11.0 | 0.00 | 0.05 | 0.05 | 77 | 1009.3 |
| 20260904042000 | 53 | 42 | 5.0 | 12.0 | 0.00 | 0.05 | 0.05 | 73 | 1009.5 |
| 20260904040947 | 53 | 42 | 9.0 | 13.0 | 0.00 | 0.05 | 0.05 | 74 | 1009.5 |
| 20260904035949 | 53 | 43 | 4.0 | 15.0 | 0.00 | 0.05 | 0.05 | 75 | 1009.6 |
| 20260904034951 | 54 | 43 | 5.0 | 16.0 | 0.00 | 0.05 | 0.05 | 74 | 1009.7 |
| 20260904033933 | 54 | 42 | 12.0 | 24.0 | 0.00 | 0.05 | 0.05 | 72 | 1009.6 |
| 20260904032939 | 54 | 41 | 12.0 | 24.0 | 0.00 | 0.05 | 0.05 | 72 | 1009.6 |
| 20260904031943 | 54 | 38 | 10.0 | 19.0 | 0.00 | 0.05 | 0.05 | 71 | 1009.2 |
| 20260904030947 | 55 | 36 | 4.0 | 15.0 | 0.00 | 0.05 | 0.05 | 75 | 1009.1 |
| 20260904025928 | 55 | 36 | 8.0 | 18.0 | 0.00 | 0.05 | 0.05 | 73 | 1009.4 |
| 20260904024938 | 56 | 36 | 11.0 | 15.0 | 0.00 | 0.05 | 0.05 | 68 | 1009.5 |
| 20260904023943 | 57 | 36 | 11.0 | 14.0 | 0.00 | 0.05 | 0.05 | 67 | 1009.5 |
| 20260904023007 | 58 | 38 | 4.0 | 11.0 | 0.00 | 0.05 | 0.05 | 63 | 1009.5 |
| 20260904022008 | 59 | 39 | 0.0 | 6.0 | 0.00 | 0.05 | 0.05 | 61 | 1009.6 |
| 20260904020933 | 60 | 39 | 3.0 | 7.0 | 0.00 | 0.05 | 0.05 | 57 | 1009.3 |
| 20260904015936 | 61 | 39 | 2.0 | 14.0 | 0.00 | 0.05 | 0.05 | 50 | 1009.1 |
| 20260904014939 | 62 | 39 | 7.0 | 13.0 | 0.00 | 0.05 | 0.05 | 54 | 1009.0 |
| 20260904013947 | 62 | 38 | 4.0 | 17.0 | 0.00 | 0.05 | 0.05 | 48 | 1008.8 |
| 20260904012934 | 62 | 39 | 4.0 | 13.0 | 0.00 | 0.05 | 0.05 | 51 | 1008.7 |
| 20260904011958 | 61 | 38 | 2.0 | 13.0 | 0.00 | 0.05 | 0.05 | 53 | 1008.7 |
| 20260904010939 | 61 | 39 | 10.0 | 12.0 | 0.00 | 0.05 | 0.05 | 59 | 1008.5 |
| 20260904005942 | 61 | 39 | 0.0 | 0.0 | 0.00 | 0.05 | 0.05 | 58 | 1008.4 |
| 20260904004945 | 62 | 39 | 0.0 | 0.0 | 0.00 | 0.05 | 0.05 | 59 | 1008.6 |
| 20260904004012 | 62 | 39 | 0.0 | 0.0 | 0.00 | 0.05 | 0.05 | 58 | 1008.6 |
| 20260904002933 | 62 | 39 | 0.0 | 0.0 | 0.00 | 0.05 | 0.05 | 60 | 1008.7 |
| 20260904002000 | 63 | 38 | 0.0 | 0.0 | 0.00 | 0.05 | 0.05 | 57 | 1008.8 |
| 20260904000940 | 63 | 38 | 0.0 | 0.0 | 0.00 | 0.05 | 0.05 | 55 | 1008.9 |
| 20260904000004 | 63 | 39 | 0.0 | 0.0 | 0.00 | 0.05 | 0.05 | 55 | 1008.8 |
| 20260903234931 | 63 | 39 | 0.0 | 0.0 | 0.00 | 0.05 | 0.05 | 57 | 1009.1 |
| 20260903233955 | 63 | 39 | 0.0 | 0.0 | 0.00 | 0.05 | 0.05 | 58 | 1009.0 |
| 20260903232935 | 63 | 38 | 0.0 | 0.0 | 0.00 | 0.05 | 0.05 | 54 | 1009.1 |
| 20260903231939 | 63 | 39 | 0.0 | 0.0 | 0.00 | 0.05 | 0.05 | 54 | 1009.2 |
| 20260903230945 | 64 | 38 | 0.0 | 0.0 | 0.00 | 0.05 | 0.05 | 54 | 1009.1 |
| 20260903230008 | 64 | 39 | 0.0 | 0.0 | 0.00 | 0.05 | 0.05 | 54 | 1009.2 |
| 20260903224950 | 64 | 39 | 0.0 | 0.0 | 0.00 | 0.05 | 0.05 | 53 | 1009.2 |
| 20260903223932 | 64 | 39 | 0.0 | 0.0 | 0.00 | 0.05 | 0.05 | 54 | 1009.2 |
| 20260903222938 | 65 | 39 | 0.0 | 0.0 | 0.00 | 0.05 | 0.05 | 53 | 1009.4 |
| 20260903221943 | 65 | 38 | 0.0 | 6.0 | 0.00 | 0.05 | 0.05 | 54 | 1009.5 |
| 20260903221005 | 65 | 39 | 1.0 | 6.0 | 0.01 | 0.05 | 0.05 | 52 | 1009.5 |
| 20260903215948 | 65 | 39 | 0.0 | 0.0 | 0.01 | 0.05 | 0.05 | 51 | 1009.2 |
| 20260903214950 | 66 | 38 | 0.0 | 0.0 | 0.01 | 0.05 | 0.05 | 51 | 1009.7 |
| 20260903213937 | 66 | 39 | 0.0 | 0.0 | 0.01 | 0.05 | 0.05 | 50 | 1009.8 |
| 20260903212940 | 66 | 38 | 0.0 | 0.0 | 0.01 | 0.05 | 0.05 | 52 | 1009.6 |
| 20260903211943 | 66 | 38 | 0.0 | 0.0 | 0.01 | 0.05 | 0.05 | 50 | 1009.5 |
| 20260903210930 | 66 | 39 | 0.0 | 5.0 | 0.00 | 0.04 | 0.04 | 51 | 1009.8 |
| 20260903210000 | 67 | 39 | 0.0 | 0.0 | 0.00 | 0.04 | 0.04 | 48 | 1010.0 |
| 20260903204942 | 66 | 39 | 0.0 | 0.0 | 0.00 | 0.04 | 0.04 | 50 | 1010.1 |
| 20260903203943 | 66 | 38 | 0.0 | 0.0 | 0.01 | 0.04 | 0.04 | 52 | 1010.1 |
| 20260903202949 | 65 | 39 | 0.0 | 0.0 | 0.01 | 0.04 | 0.04 | 52 | 1009.9 |
| 20260903201935 | 65 | 38 | 0.0 | 0.0 | 0.01 | 0.04 | 0.04 | 52 | 1010.3 |
| 20260903200959 | 65 | 39 | 0.0 | 0.0 | 0.01 | 0.04 | 0.04 | 51 | 1010.3 |
| 20260903195941 | 65 | 39 | 0.0 | 0.0 | 0.01 | 0.04 | 0.04 | 51 | 1010.5 |
| 20260903194946 | 65 | 38 | 0.0 | 0.0 | 0.02 | 0.04 | 0.04 | 51 | 1010.2 |
| 20260903193947 | 65 | 38 | 0.0 | 0.0 | 0.01 | 0.03 | 0.03 | 51 | 1010.3 |
| 20260903192938 | 65 | 39 | 0.0 | 0.0 | 0.01 | 0.03 | 0.03 | 51 | 1010.5 |
| 20260903191941 | 64 | 38 | 0.0 | 0.0 | 0.01 | 0.03 | 0.03 | 49 | 1010.5 |
| 20260903190946 | 64 | 38 | 0.0 | 0.0 | 0.02 | 0.03 | 0.03 | 52 | 1010.6 |
| 20260903185948 | 64 | 38 | 0.0 | 0.0 | 0.02 | 0.03 | 0.03 | 52 | 1010.7 |
| 20260903184936 | 63 | 38 | 0.0 | 0.0 | 0.01 | 0.02 | 0.02 | 51 | 1010.8 |
| 20260903183959 | 63 | 39 | 0.0 | 0.0 | 0.01 | 0.02 | 0.02 | 52 | 1010.8 |
| 20260903183002 | 63 | 39 | 1.0 | 9.0 | 0.01 | 0.02 | 0.02 | 51 | 1011.0 |
| 20260903182003 | 63 | 39 | 2.0 | 10.0 | 0.01 | 0.02 | 0.02 | 52 | 1011.1 |
| 20260903180948 | 63 | 38 | 1.0 | 9.0 | 0.00 | 0.01 | 0.01 | 56 | 1011.2 |
| 20260903175934 | 62 | 38 | 1.0 | 9.0 | 0.00 | 0.01 | 0.01 | 56 | 1011.2 |
| 20260903174935 | 63 | 39 | 7.0 | 10.0 | 0.00 | 0.01 | 0.01 | 54 | 1011.3 |
| 20260903173939 | 63 | 39 | 0.0 | 0.0 | 0.01 | 0.01 | 0.01 | 53 | 1011.3 |
| 20260903171936 | 62 | 38 | 0.0 | 0.0 | 0.01 | 0.01 | 0.01 | 51 | 1011.3 |
| 20260903171002 | 62 | 39 | 3.0 | 8.0 | 0.01 | 0.01 | 0.01 | 52 | 1011.3 |
| 20260903165946 | 62 | 38 | 3.0 | 13.0 | 0.01 | 0.01 | 0.01 | 53 | 1011.4 |
| 20260903164948 | 62 | 38 | 2.0 | 9.0 | 0.01 | 0.01 | 0.01 | 57 | 1011.3 |
| 20260903163931 | 61 | 38 | 0.0 | 7.0 | 0.00 | 0.00 | 0.00 | 58 | 1011.3 |
| 20260903162942 | 61 | 38 | 0.0 | 0.0 | 0.00 | 0.00 | 0.00 | 63 | 1011.2 |
| 20260903161945 | 60 | 39 | 0.0 | 0.0 | 0.00 | 0.00 | 0.00 | 60 | 1011.3 |
| 20260903160947 | 59 | 38 | 0.0 | 5.0 | 0.00 | 0.00 | 0.00 | 65 | 1011.3 |
| 20260903155934 | 59 | 39 | 1.0 | 9.0 | 0.00 | 0.00 | 0.00 | 65 | 1011.2 |
| 20260903154941 | 58 | 39 | 3.0 | 9.0 | 0.00 | 0.00 | 0.00 | 68 | 1011.5 |
| 20260903154005 | 57 | 39 | 0.0 | 0.0 | 0.00 | 0.00 | 0.00 | 73 | 1011.4 |
| 20260903152946 | 56 | 39 | 0.0 | 0.0 | 0.00 | 0.00 | 0.00 | 74 | 1011.4 |
| 20260903151931 | 56 | 39 | 0.0 | 0.0 | 0.00 | 0.00 | 0.00 | 75 | 1011.5 |
| 20260903150937 | 56 | 39 | 0.0 | 0.0 | 0.00 | 0.00 | 0.00 | 76 | 1011.7 |
| 20260903145944 | 55 | 38 | 0.0 | 0.0 | 0.00 | 0.00 | 0.00 | 76 | 1011.8 |
| 20260903144930 | 55 | 38 | 0.0 | 0.0 | 0.00 | 0.00 | 0.00 | 76 | 1011.7 |
| 20260903143935 | 55 | 39 | 0.0 | 0.0 | 0.00 | 0.00 | 0.00 | 75 | 1011.6 |
| 20260903142943 | 55 | 38 | 0.0 | 6.0 | 0.00 | 0.00 | 0.00 | 77 | 1011.5 |
| 20260903141929 | 55 | 38 | 1.0 | 6.0 | 0.00 | 0.00 | 0.00 | 78 | 1011.5 |
| 20260903140935 | 55 | 39 | 1.0 | 3.0 | 0.00 | 0.00 | 0.00 | 78 | 1011.5 |
| 20260903135938 | 54 | 39 | 1.0 | 5.0 | 0.00 | 0.00 | 0.00 | 78 | 1011.4 |
| 20260903135000 | 54 | 38 | 1.0 | 3.0 | 0.00 | 0.00 | 0.00 | 79 | 1011.4 |
| 20260903134005 | 54 | 38 | 0.0 | 0.0 | 0.00 | 0.00 | 0.00 | 77 | 1011.3 |
| 20260903132948 | 54 | 38 | 0.0 | 4.0 | 0.00 | 0.00 | 0.00 | 77 | 1011.2 |
| 20260903131951 | 54 | 38 | 0.0 | 7.0 | 0.00 | 0.00 | 0.00 | 79 | 1011.1 |
| 20260903130935 | 54 | 39 | 0.0 | 1.0 | 0.00 | 0.00 | 0.00 | 82 | 1011.1 |
| 20260903130002 | 53 | 39 | 4.0 | 8.0 | 0.00 | 0.00 | 0.00 | 84 | 1010.9 |
| 20260903124945 | 53 | 39 | 0.0 | 0.0 | 0.00 | 0.00 | 0.00 | 87 | 1010.8 |
| 20260903123947 | 54 | 39 | 0.0 | 0.0 | 0.00 | 0.00 | 0.00 | 88 | 1010.8 |
| 20260903122934 | 54 | 39 | 0.0 | 0.0 | 0.00 | 0.00 | 0.00 | 89 | 1010.7 |
| 20260903121941 | 54 | 39 | 0.0 | 0.0 | 0.00 | 0.00 | 0.00 | 89 | 1010.6 |
| 20260903120944 | 54 | 39 | 0.0 | 0.0 | 0.00 | 0.00 | 0.00 | 89 | 1010.6 |
| 20260903115946 | 54 | 39 | 0.0 | 0.0 | 0.00 | 0.00 | 0.00 | 89 | 1010.5 |
| 20260903113945 | 54 | 38 | 0.0 | 0.0 | 0.00 | 0.00 | 0.00 | 88 | 1010.5 |
| 20260903112935 | 54 | 39 | 0.0 | 0.0 | 0.00 | 0.00 | 0.00 | 88 | 1010.5 |
| 20260903111939 | 54 | 38 | 0.0 | 0.0 | 0.00 | 0.00 | 0.00 | 88 | 1010.5 |
| 20260903110940 | 54 | 39 | 0.0 | 0.0 | 0.00 | 0.00 | 0.00 | 87 | 1010.3 |
| 20260903105944 | 54 | 39 | 0.0 | 0.0 | 0.00 | 0.00 | 0.00 | 86 | 1010.3 |
| 20260903105007 | 54 | 39 | 0.0 | 0.0 | 0.00 | 0.00 | 0.00 | 86 | 1010.2 |
| 20260903103933 | 55 | 39 | 0.0 | 0.0 | 0.00 | 0.00 | 0.00 | 85 | 1010.2 |
| 20260903102956 | 55 | 38 | 0.0 | 0.0 | 0.00 | 0.00 | 0.00 | 85 | 1010.4 |
| 20260903101939 | 55 | 38 | 0.0 | 0.0 | 0.00 | 0.00 | 0.00 | 84 | 1010.3 |
| 20260903100943 | 55 | 39 | 0.0 | 0.0 | 0.00 | 0.00 | 0.00 | 83 | 1010.1 |
| 20260903095949 | 55 | 38 | 0.0 | 6.0 | 0.00 | 0.00 | 0.00 | 83 | 1010.3 |
| 20260903094930 | 55 | 38 | 0.0 | 0.0 | 0.00 | 0.00 | 0.00 | 84 | 1010.2 |
| 20260903093936 | 55 | 39 | 0.0 | 0.0 | 0.00 | 0.00 | 0.00 | 83 | 1010.0 |
| 20260903093000 | 55 | 39 | 0.0 | 0.0 | 0.00 | 0.00 | 0.00 | 83 | 1009.7 |
| 20260903091945 | 55 | 39 | 0.0 | 0.0 | 0.00 | 0.00 | 0.00 | 83 | 1009.7 |
| 20260903090947 | 55 | 39 | 0.0 | 0.0 | 0.00 | 0.00 | 0.00 | 83 | 1009.6 |
| 20260903085932 | 55 | 39 | 0.0 | 0.0 | 0.00 | 0.00 | 0.00 | 83 | 1009.6 |
| 20260903084938 | 55 | 38 | 0.0 | 0.0 | 0.00 | 0.00 | 0.00 | 82 | 1009.5 |
| 20260903083946 | 55 | 39 | 0.0 | 0.0 | 0.00 | 0.00 | 0.00 | 84 | 1009.5 |